Location: Recife
(8.0585°S, 34.8848°W)
Time: 06:29:57
(UTC-03:00)

Vanguard 1 - Pass Details

Date: 16 April 2026
Orbit: 654 x 3817 km, 34.2° (Epoch: 13 May)

Event Time Altitude Azimuth Distance (km) Brightness Sun altitude
Rises 16:42:14 0° 224° (SW) 4,496 13.9 7.6°
Reaches altitude 10° 16:44:50 10° 217° (SW) 3,830 13.5 6.9°
Maximum altitude 16:55:16 51° 143° (SE) 2,849 12.2 4.4°
Drops below altitude 10° 17:13:38 10° 72° (ENE) 6,479 13.7 -0.1°
Sets 17:19:37 0° 67° (ENE) 7,770 14.1 -1.5°
